Retour au catalogue

CZ-4 DEB

ActifSSO
NORAD 28070·DEBRIS·🇨🇳 China

Lancé Oct 14, 1999 depuis Taiyuan Satellite Launch Center

Loading…

Prochains Passages (prochaines 24 heures)

TLE

FraisSource: Space-Track

Époque: Sep 13, 2026, 09:50 UTC

1 28070U 99057NA  26256.41020803  .00001172  00000-0  24519-3 0  9991
2 28070  98.4311 316.5881 0059845  23.9191 336.4768 14.60659307267848

Suivez CZ-4 DEB en temps réel avec AllMySat

Download on the App Store